CKJ4069 ZULS-ZUUU

Flight info

Callsign CKJ4069
Flight time N/A
Altitude 35100
Route DUMIX W9 LADUP
Aircraft CRJ7/M-SADE3FGHIJ1J3J4J7P2RWXY/LB1

Departure

Time 2026-04-24 03:50
Airport Lhasa Gonggar International Airport (ZULS)

Arrival

Time N/A
Airport Chengdu Shuangliu International Airport (ZUUU)
Time Latitude Longitude Altitude Speed Heading
2026-04-24 03:46 29.29424 90.88683 11921 ft 0 kts 179°
2026-04-24 03:48 29.29418 90.88664 11921 ft 6 kts 303°
2026-04-24 03:48 29.29486 90.88638 11921 ft 14 kts
2026-04-24 03:48 29.29608 90.88671 11921 ft 21 kts 13°
2026-04-24 03:49 29.29781 90.88686 11922 ft 28 kts
2026-04-24 03:49 29.29930 90.88774 11922 ft 25 kts 34°
2026-04-24 03:49 29.30071 90.88827 11922 ft 15 kts 11°
2026-04-24 03:49 29.30114 90.88919 11922 ft 29 kts 89°
2026-04-24 03:50 29.30123 90.89513 11921 ft 117 kts 89°
2026-04-24 03:50 29.30142 90.90713 11944 ft 179 kts 90°
2026-04-24 03:50 29.30158 90.92205 12499 ft 195 kts 90°
2026-04-24 03:50 29.30182 90.93795 13195 ft 209 kts 90°
2026-04-24 03:51 29.30207 90.95608 13531 ft 247 kts 90°
2026-04-24 03:51 29.30236 90.97702 14009 ft 280 kts 90°
2026-04-24 03:51 29.30268 91.00017 14542 ft 307 kts 89°
2026-04-24 03:51 29.30553 91.02462 15413 ft 316 kts 71°
2026-04-24 03:52 29.31568 91.04797 16324 ft 324 kts 63°
2026-04-24 03:52 29.32157 91.06789 17078 ft 328 kts 84°
2026-04-24 03:52 29.32027 91.09368 18024 ft 331 kts 103°
2026-04-24 03:52 29.31378 91.11897 18893 ft 337 kts 108°
2026-04-24 03:53 29.30757 91.14474 19675 ft 343 kts 102°
2026-04-24 03:53 29.30391 91.17162 20508 ft 349 kts 97°
2026-04-24 03:53 29.30162 91.19974 21344 ft 354 kts 95°
2026-04-24 03:53 29.29946 91.22781 22178 ft 360 kts 95°
2026-04-24 03:54 29.29725 91.25648 23059 ft 364 kts 95°
2026-04-24 03:54 29.29503 91.28552 23913 ft 369 kts 95°
2026-04-24 03:54 29.29282 91.31448 24819 ft 373 kts 95°
2026-04-24 03:54 29.29057 91.34400 25703 ft 378 kts 95°
2026-04-24 03:55 29.28826 91.37434 26593 ft 381 kts 95°
2026-04-24 03:55 29.28598 91.40441 27448 ft 384 kts 94°
2026-04-24 03:55 29.28365 91.43503 28159 ft 390 kts 94°
2026-04-24 03:55 29.28128 91.46613 28946 ft 393 kts 94°
2026-04-24 03:56 29.27892 91.49719 29728 ft 396 kts 94°
2026-04-24 03:56 29.27640 91.52853 30395 ft 400 kts 94°
2026-04-24 03:56 29.27363 91.56085 30518 ft 418 kts 94°
2026-04-24 03:56 29.27074 91.59449 30594 ft 435 kts 95°
2026-04-24 03:57 29.26774 91.62943 30850 ft 446 kts 94°
2026-04-24 03:57 29.26467 91.66497 31272 ft 453 kts 95°
2026-04-24 03:57 29.26156 91.70092 31770 ft 456 kts 95°
2026-04-24 03:57 29.25843 91.73708 32353 ft 457 kts 95°
2026-04-24 03:58 29.25584 91.77357 32886 ft 458 kts 92°
2026-04-24 03:58 29.25475 91.81022 33302 ft 462 kts 91°
2026-04-24 03:58 29.25379 91.84668 33729 ft 464 kts 91°
2026-04-24 03:58 29.25320 91.86884 34037 ft 464 kts 90°
2026-04-24 03:59 29.25222 91.90556 34635 ft 463 kts 91°
2026-04-24 03:59 29.25122 91.94186 35209 ft 461 kts 91°
2026-04-24 03:59 29.25034 91.97265 35654 ft 461 kts 91°
2026-04-24 03:59 29.24927 92.00929 36070 ft 463 kts 91°
2026-04-24 04:00 29.24823 92.04657 36119 ft 471 kts 91°
2026-04-24 04:00 29.24609 92.12156 36096 ft 477 kts 91°
2026-04-24 04:01 29.24388 92.19711 36074 ft 475 kts 91°
2026-04-24 04:01 29.24188 92.27252 36079 ft 475 kts 91°
2026-04-24 04:02 29.23986 92.34810 36055 ft 476 kts 91°
2026-04-24 04:02 29.23778 92.42395 36046 ft 476 kts 91°
2026-04-24 04:03 29.23577 92.49915 36006 ft 477 kts 90°
2026-04-24 04:03 29.24223 92.57426 36023 ft 475 kts 76°
2026-04-24 04:04 29.26360 92.64532 36048 ft 473 kts 62°
2026-04-24 04:04 29.29555 92.71149 36057 ft 474 kts 59°
2026-04-24 04:05 29.32795 92.77692 36097 ft 474 kts 58°
2026-04-24 04:05 29.35467 92.83095 36079 ft 475 kts 58°
2026-04-24 04:06 29.37915 92.88068 36097 ft 476 kts 59°
2026-04-24 04:06 29.40960 92.94237 36071 ft 475 kts 59°
2026-04-24 04:07 29.44252 93.00916 36084 ft 475 kts 59°
2026-04-24 04:07 29.47515 93.07555 36096 ft 475 kts 59°
2026-04-24 04:08 29.50750 93.14150 36095 ft 476 kts 58°
2026-04-24 04:08 29.54007 93.20798 36073 ft 476 kts 58°
2026-04-24 04:09 29.57243 93.27418 36071 ft 475 kts 58°
2026-04-24 04:09 29.60497 93.34084 36077 ft 475 kts 58°
2026-04-24 04:10 29.62823 93.38848 36020 ft 475 kts 58°
2026-04-24 04:10 29.66042 93.45462 36049 ft 474 kts 58°
2026-04-24 04:11 29.70864 93.55393 36029 ft 474 kts 58°
2026-04-24 04:11 29.74073 93.62015 36006 ft 474 kts 58°
2026-04-24 04:12 29.77275 93.68633 36026 ft 473 kts 58°
2026-04-24 04:12 29.80467 93.75240 35997 ft 474 kts 58°
2026-04-24 04:13 29.83049 93.80592 35976 ft 473 kts 58°
2026-04-24 04:13 29.85949 93.86610 35995 ft 473 kts 58°
2026-04-24 04:14 29.89004 93.93326 36006 ft 475 kts 65°
2026-04-24 04:14 29.90856 94.00603 35986 ft 479 kts 75°
2026-04-24 04:15 29.92332 94.08087 35972 ft 478 kts 75°
2026-04-24 04:15 29.93803 94.15545 35948 ft 479 kts 75°
2026-04-24 04:16 29.95272 94.23016 35935 ft 479 kts 75°
2026-04-24 04:16 29.96741 94.30502 35888 ft 479 kts 75°
2026-04-24 04:17 29.98202 94.37974 35914 ft 479 kts 74°
2026-04-24 04:17 29.99656 94.45427 35873 ft 479 kts 74°
2026-04-24 04:18 30.01111 94.52913 35888 ft 479 kts 74°
2026-04-24 04:18 30.02564 94.60410 35872 ft 480 kts 74°
2026-04-24 04:19 30.04022 94.67954 35865 ft 480 kts 75°
2026-04-24 04:19 30.05465 94.75443 35790 ft 480 kts 75°
2026-04-24 04:20 30.06745 94.82095 35821 ft 480 kts 74°
2026-04-24 04:20 30.08090 94.89118 35798 ft 480 kts 74°
2026-04-24 04:21 30.09514 94.96582 35807 ft 480 kts 74°
2026-04-24 04:21 30.11001 95.04105 35776 ft 480 kts 73°
2026-04-24 04:22 30.12469 95.11481 35819 ft 479 kts 73°
2026-04-24 04:22 30.13621 95.17285 35810 ft 480 kts 73°
2026-04-24 04:23 30.15063 95.24571 35837 ft 479 kts 73°
2026-04-24 04:23 30.16435 95.31526 35834 ft 479 kts 73°
2026-04-24 04:24 30.17918 95.39072 35845 ft 480 kts 73°
2026-04-24 04:24 30.19396 95.46609 35851 ft 487 kts 73°
2026-04-24 04:25 30.20894 95.54275 35883 ft 491 kts 73°
2026-04-24 04:25 30.22390 95.61966 35900 ft 491 kts 73°
2026-04-24 04:26 30.23856 95.69526 35939 ft 491 kts 73°
2026-04-24 04:26 30.25277 95.76874 35957 ft 491 kts 73°
2026-04-24 04:27 30.26487 95.83147 35915 ft 491 kts 73°
2026-04-24 04:27 30.27966 95.90846 35965 ft 490 kts 73°
2026-04-24 04:28 30.29264 95.97620 35993 ft 491 kts 73°
2026-04-24 04:28 30.30806 96.05442 36009 ft 490 kts 72°
2026-04-24 04:29 30.32379 96.13204 35996 ft 490 kts 72°
2026-04-24 04:29 30.33936 96.20912 35994 ft 490 kts 72°
2026-04-24 04:30 30.35468 96.28527 35996 ft 490 kts 72°
2026-04-24 04:30 30.36702 96.34678 35989 ft 491 kts 72°
2026-04-24 04:31 30.38234 96.42338 35987 ft 491 kts 72°
2026-04-24 04:31 30.39767 96.50025 35972 ft 491 kts 72°
2026-04-24 04:32 30.41293 96.57709 35984 ft 490 kts 72°
2026-04-24 04:32 30.42847 96.65552 35983 ft 491 kts 73°